This demonstration page uses our WeatherBlox Daily Observations layout. Learn more.

Hourly Observations for September 27, 2018

Temp ( °F °C ) Dew Point ( °F °C ) Humidity (%) Winds ( mph kmh ) Pressure ( in mb ) Visibility ( mi km ) Precip ( " mm )
12:15 am 00:15 Clear 56 13.5 42 5.6 59 59 S 12 19 30.03 1017 10 16.09344 0 0
12:35 am 00:35 Clear 56 13.6 42 5.5 58 58 S 12 19 30.03 1017 10 16.09344 0 0
12:55 am 00:55 Clear 56 13.6 41 5 56 56 SSW 13 20 30.03 1017 10 16.09344 0 0
1:15 am 01:15 Clear 56 13.3 41 4.8 57 57 SSW 10 17 30.03 1017 10 16.09344 0 0
1:35 am 01:35 Clear 55 12.9 40 4.6 57 57 SSW 10 17 30.06 1018 10 16.09344 0 0
1:55 am 01:55 Clear 54 12.3 40 4.4 59 59 SSW 10 17 30.06 1018 10 16.09344 0 0
2:15 am 02:15 Clear 54 12.3 40 4.2 58 58 SSW 12 19 30.03 1017 10 16.09344 0 0
2:35 am 02:35 Clear 54 12 40 4.3 60 60 SSW 10 17 30.03 1017 10 16.09344 0 0
2:55 am 02:55 Clear 53 11.6 40 4.2 61 61 SSW 10 17 30.03 1017 10 16.09344 0 0
3:15 am 03:15 Clear 53 11.6 40 4.2 61 61 SSW 13 20 30.03 1017 10 16.09344 0 0
3:35 am 03:35 Clear 53 11.8 39 4.1 60 60 SSW 13 20 30.03 1017 10 16.09344 0 0
3:55 am 03:55 Clear 53 11.4 40 4.2 62 62 SSW 9 15 30.03 1017 10 16.09344 0 0
4:15 am 04:15 Clear 52 11 39 4.1 63 63 SSW 12 19 30 1016 10 16.09344 0 0
4:35 am 04:35 Clear 52 10.9 39 4.1 63 63 SSW 14 22 30 1016 10 16.09344 0 0
4:55 am 04:55 Clear 51 10.6 40 4.3 65 65 SSW 13 20 30 1016 10 16.09344 0 0
5:15 am 05:15 Clear 51 10.7 40 4.5 66 66 SSW 10 17 30 1016 10 16.09344 0 0
5:35 am 05:35 Clear 51 10.5 40 4.5 67 67 SSW 10 17 29.97 1015 10 16.09344 0 0
5:55 am 05:55 Clear 50 10.2 40 4.5 68 68 SSW 9 15 30 1016 10 16.09344 0 0
6:15 am 06:15 Clear 50 10 40 4.5 69 69 SSW 9 15 29.97 1015 10 16.09344 0 0
6:35 am 06:35 Clear 49 9.5 40 4.6 72 72 SSW 8 13 30 1016 10 16.09344 0 0
6:55 am 06:55 Clear 50 10 41 4.8 70 70 SW 7 11 30 1016 10 16.09344 0 0
7:15 am 07:15 Clear 49 9.6 41 4.9 73 73 SW 6 9 30 1016 10 16.09344 0 0
7:35 am 07:35 Sunny 49 9.5 41 5 74 74 SSW 7 11 29.97 1015 10 16.09344 0 0
7:55 am 07:55 Sunny 48 9 41 5.1 77 77 SW 5 7 29.97 1015 10 16.09344 0 0
8:15 am 08:15 Sunny 49 9.5 42 5.5 76 76 WSW 5 7 30 1016 10 16.09344 0 0
8:35 am 08:35 Sunny 51 10.7 43 6 73 73 Calm 30 1016 10 16.09344 0 0
8:55 am 08:55 Sunny 53 11.6 43 6.1 69 69 WSW 3 6 30 1016 10 16.09344 0 0
9:15 am 09:15 Sunny 54 12.3 43 6.3 67 67 SW 5 7 30 1016 10 16.09344 0 0
9:35 am 09:35 Sunny 57 13.7 44 6.4 62 62 SW 6 9 29.97 1015 10 16.09344 0 0
9:55 am 09:55 Sunny 58 14.5 44 6.4 59 59 WSW 7 11 29.97 1015 10 16.09344 0 0
10:15 am 10:15 Sunny 60 15.6 44 6.6 55 55 W 7 11 29.94 1014 10 16.09344 0 0
10:35 am 10:35 Sunny 62 16.9 46 7.7 55 55 WNW 6 9 29.91 1013 10 16.09344 0 0
10:55 am 10:55 undefined N/A N/A N/A undefined N/A N/A N/A 0 0
11:15 am 11:15 Sunny with Thunderstorms 63 17.4 42 5.6 46 46 Calm 29.91 1013 10 16.09344 0.03 0.762
11:35 am 11:35 Sunny 65 18.2 43 5.9 45 45 Calm 29.91 1013 10 16.09344 0.03 0.762
11:55 am 11:55 Sunny 66 18.7 42 5.3 42 42 Calm 29.91 1013 10 16.09344 0.03 0.762
12:15 pm 12:15 Sunny 67 19.6 42 5.6 40 40 ENE 3 6 29.88 1012 10 16.09344 0 0
12:35 pm 12:35 Sunny 69 20.7 42 5.3 37 37 N 6 9 29.88 1012 10 16.09344 0 0
12:55 pm 12:55 Sunny 70 21.2 42 5.6 36 36 E 7 11 29.88 1012 10 16.09344 0 0
1:15 pm 13:15 Sunny 72 22.3 43 5.9 35 35 E 8 13 29.85 1011 10 16.09344 0 0
1:35 pm 13:35 Sunny 73 22.7 42 5.4 33 33 NE 7 11 29.83 1010 10 16.09344 0 0
1:55 pm 13:55 Sunny 73 22.6 42 5.3 33 33 NE 14 22 29.83 1010 10 16.09344 0 0
2:15 pm 14:15 Sunny 73 22.8 42 5.4 32 32 NNE 10 17 29.83 1010 10 16.09344 0 0
2:35 pm 14:35 Sunny 73 23 42 5.6 32 32 ENE 8 13 29.83 1010 10 16.09344 0 0
2:55 pm 14:55 Sunny 73 22.8 43 5.9 34 34 ENE 12 19 29.83 1010 10 16.09344 0 0
3:15 pm 15:15 Sunny 74 23.4 42 5.4 31 31 E 13 20 29.8 1009 10 16.09344 0 0
3:35 pm 15:35 Sunny 75 23.7 40 4.5 29 29 NE 12 19 29.8 1009 10 16.09344 0 0
3:55 pm 15:55 Sunny 74 23.5 40 4.3 29 29 NNE 12 19 29.8 1009 10 16.09344 0 0
4:15 pm 16:15 Sunny 74 23.5 41 4.9 30 30 E 10 17 29.8 1009 10 16.09344 0 0
4:35 pm 16:35 Sunny 74 23.3 40 4.5 30 30 E 13 20 29.8 1009 10 16.09344 0 0
4:55 pm 16:55 Sunny 74 23.4 41 4.9 30 30 E 13 20 29.8 1009 10 16.09344 0 0
5:15 pm 17:15 Sunny 73 22.9 40 4.4 30 30 NNE 16 26 29.8 1009 10 16.09344 0 0
5:35 pm 17:35 Sunny 73 22.5 40 4.2 30 30 NNE 14 22 29.83 1010 10 16.09344 0 0
5:55 pm 17:55 Sunny 71 21.8 39 4 31 31 NNE 17 28 29.85 1011 10 16.09344 0 0
6:15 pm 18:15 Sunny 70 21 40 4.4 34 34 NNE 13 20 29.85 1011 10 16.09344 0 0
6:35 pm 18:35 Sunny 68 20.2 40 4.7 36 36 NNE 15 24 29.85 1011 10 16.09344 0 0
6:55 pm 18:55 Sunny 65 18.6 40 4.7 40 40 NNE 12 19 29.91 1013 10 16.09344 0 0
7:15 pm 19:15 Sunny 63 17.3 40 4.3 42 42 NNE 14 22 29.91 1013 10 16.09344 0 0
7:35 pm 19:35 Clear 61 16.2 40 4.6 46 46 NNE 12 19 29.91 1013 10 16.09344 0 0
7:55 pm 19:55 Clear 60 15.6 41 4.9 49 49 NNE 13 20 29.97 1015 10 16.09344 0 0
8:15 pm 20:15 Clear 59 14.9 42 5.6 54 54 NE 15 24 29.97 1015 10 16.09344 0 0
8:35 pm 20:35 Clear 58 14.3 42 5.8 57 57 NNE 13 20 29.97 1015 10 16.09344 0 0
8:55 pm 20:55 Clear 57 14 43 6.3 60 60 NE 14 22 29.97 1015 10 16.09344 0 0
9:15 pm 21:15 Clear 56 13.6 44 6.9 64 64 NE 10 17 30 1016 10 16.09344 0 0
9:35 pm 21:35 Clear 56 13.6 44 6.7 63 63 NE 13 20 30 1016 10 16.09344 0 0
9:55 pm 21:55 Clear 56 13.2 44 6.6 65 65 NE 10 17 30 1016 10 16.09344 0 0
10:15 pm 22:15 Clear 55 13 45 7 67 67 NE 12 19 30 1016 10 16.09344 0 0
10:35 pm 22:35 Clear 55 13 45 7.2 68 68 NE 14 22 30 1016 10 16.09344 0 0
10:55 pm 22:55 Clear 55 13 45 7.2 68 68 NE 14 22 30 1016 10 16.09344 0 0
11:15 pm 23:15 Clear 55 13 45 7.3 69 69 NE 13 20 30.06 1018 10 16.09344 0 0
11:35 pm 23:35 Clear 55 12.7 46 7.5 71 71 NE 13 20 30.06 1018 10 16.09344 0 0
11:55 pm 23:55 Clear 55 12.5 46 7.5 72 72 NE 14 22 30.06 1018 10 16.09344 0 0

Powered by AerisWeather